www.pogodaiklimat.ru

Погода и климат >> Архив погоды >> Мали >> Kayes


ПОГОДА в Kayes

  • Прогноз погоды в Kayes
  • Монитор погоды в Kayes
  • Климат города

АРХИВ ПОГОДЫ в Kayes

Время (UTC), дата Ветер
(напр.,м/с)
 
Видим.   Явления Облачность Т
(С)
Тd
(С)
f
(%)
Тe
(С)
Тes
(С)
Комфортность P
(гПа)
Po
(гПа)
Тmin
(С)
Tmax
(С)
R
(мм)
R24
(мм)
S
(см)
18 10.12 С 2 10 км 4/0
[Ci sp]
+32.2 +7.0 21 +31 +31 жарко 1012.6 1006.2 +36.4
21 10.12 СВ 3 10 км 4/0
[Ci sp]
+25.5 +6.2 29 +25 +25 комфорт 1015.6 1009.2
00 11.12 ЮВ 3 10 км 4/0
[Ci sp]
+21.8 +4.0 31 +22 +22 комфорт 1015.9 1009.6
03 11.12 ЮВ 2 10 км 4/0
[Ci sp]
+18.0 +3.2 37 +19 +19 1014.4 1008.1
06 11.12 ЮВ 3 10 км 4/0
[Ci sp]
+16.5 +2.9 40 +16 +16 1015.1 1008.7 +16.5
09 11.12 В 3 10 км 5/0
[Ci sp]
+22.4 +1.8 26 +22 +25 комфорт 1016.1 1009.7
12 11.12 В 3 10 км 4/0
[Ac lent Ci sp]
+30.8 +3.2 17 +28 +38 жарко 1014.7 1008.4
15 11.12 В 2 10 км 4/0
[Ci sp]
+35.6 +6.2 16 +33 +42 жарко 1011.1 1004.8
18 11.12 С 2 10 км 3/0
[Ci sp]
+33.0 +5.8 18 +31 +31 жарко 1011.5 1005.1 +36.0
21 11.12 С 3 10 км 4/0
[Ci sp]
+25.2 +6.2 30 +25 +25 комфорт 1013.9 1007.5
00 12.12 С 2 10 км 4/0
[Ci sp]
+22.0 +6.1 36 +23 +23 комфорт 1013.2 1006.9
03 12.12 ЮВ 2 10 км 4/0
[Ci sp]
+29.4 +4.8 21 +28 +28 жарко 1012.0 1005.7
06 12.12 ЮВ 2 10 км 4/0
[Ac lent Ci sp]
+26.0 +4.2 25 +25 +25 комфорт 1011.9 1005.5 +15.8
09 12.12 СВ 3 10 км 3/0
[Ci sp]
+23.0 +1.6 24 +22 +25 комфорт 1014.8 1008.4
12 12.12 В 5 10 км ясно +32.1 +4.5 18 +30 +37 жарко 1013.3 1007.0
15 12.12 ЮВ 4 10 км 4/0
[Ci sp]
+36.1 +3.9 13 +33 +39 жарко 1010.4 1004.1
18 12.12 ЮВ 2 10 км 5/0
[Ci sp]
+33.0 +5.4 18 +31 +31 жарко 1011.1 1004.7 +36.6
21 12.12 СВ 3 10 км 4/0
[Ci sp]
+26.5 +8.4 32 +27 +27 жарко 1013.1 1006.7
00 13.12 ЮВ 3 10 км 4/0
[Ci sp]
+21.5 +10.1 48 +23 +23 комфорт 1013.6 1007.3
03 13.12 ЮВ 1 10 км 6/0
[Ci sp]
+20.6 +9.8 50 +23 +23 комфорт 1012.8 1006.5
06 13.12 ЮВ 2 10 км 8/0
[Ci sp]
+21.3 +8.4 44 +22 +22 комфорт 1013.7 1007.4 +20.6
09 13.12 СВ 4 10 км 9/0
[Ac lent Ci sp]
+25.6 +3.2 23 +24 +26 комфорт 1016.0 1009.6
12 13.12 В 4 10 км 9/0
[Ac lent Ci sp]
+32.2 +4.8 18 +30 +34 жарко 1015.5 1009.2
15 13.12 СВ 5 10 км 9/0
[Ac lent Ci sp]
+36.0 +5.1 15 +33 +35 жарко 1013.2 1006.9
18 13.12 СВ 4 10 км 9/0
[Ac lent Ci sp]
+33.0 +5.4 18 +31 +31 жарко 1014.0 1007.7 +36.7
21 13.12 СВ 4 10 км 8/0
[Ac lent Ci sp]
+28.8 +3.1 19 +27 +27 жарко 1015.0 1008.6
00 14.12 СВ 5 10 км 8/0
[Ac lent Ci sp]
+26.8 +0.2 18 +25 +25 комфорт 1015.4 1009.1
03 14.12 ЮВ 2 10 км 8/0
[Ac lent Ci sp]
+21.4 +2.7 29 +21 +21 комфорт 1015.1 1008.8
06 14.12 В 2 10 км 8/0
[Ac lent Ci sp]
+19.0 +2.3 33 +20 +20 1015.9 1009.5 +19.0
09 14.12 СВ 5 10 км 9/0
[Ac lent Ci sp]
+25.0 +4.4 26 +24 +25 комфорт 1018.6 1012.2
12 14.12 В 7 10 км 9/0
[Ac lent Ci sp]
+32.6 +5.9 19 +31 +32 жарко 1017.3 1011.0
15 14.12 СВ 6 10 км 9/0
[Ac lent Ci sp]
+36.2 +6.2 16 +34 +36 очень
жарко
1014.0 1007.7
18 14.12 С 4 10 км 9/0
[Ac lent Ci sp]
+32.8 +8.1 22 +31 +31 жарко 1014.9 1008.6 +36.4
21 14.12 С 4 10 км 8/0
[Ac lent Ci sp]
+29.0 +0.1 15 +26 +26 жарко 1017.6 1011.3
00 15.12 ЮВ 2 10 км 8/0
[Ac lent Ci sp]
+22.5 +3.7 29 +22 +22 комфорт 1018.0 1011.7
03 15.12 В 2 10 км 9/0
[Ac lent Ci sp]
+21.0 +3.6 32 +22 +22 комфорт 1016.7 1010.4
06 15.12 ЮВ 2 10 км 9/0
[Ac lent Ci sp]
+19.0 +4.8 39 +20 +20 1018.1 1011.7 +19.0
09 15.12 СВ 4 10 км 9/0
[Ac lent Ci sp]
+25.4 +6.7 30 +23 +24 комфорт 1019.1 1012.7
12 15.12 СВ 5 10 км 9/0
[Ac lent Ci sp]
+30.0 +8.8 27 +29 +32 жарко 1019.1 1012.7
15 15.12 С 4 10 км 9/0
[Ac lent Ci sp]
+33.4 +10.8 25 +33 +36 жарко 1015.6 1009.3
18 15.12 С 4 10 км 3/0
[Ac lent]
+30.4 +10.0 28 +30 +30 жарко 1016.6 1010.2 +35.8
21 15.12 С 4 10 км 5/0
[Ac lent Ci sp]
+25.4 +8.7 35 +26 +26 жарко 1017.8 1011.4
00 16.12 СВ 2 15 км 5/0
[Ac lent Ci sp]
+22.4 +7.5 38 +23 +23 комфорт 1017.9 1011.5
03 16.12 В 3 10 км 5/0
[Ac lent Ci sp]
+21.7 +7.2 39 +23 +23 комфорт 1017.1 1010.7
06 16.12 ЮВ 2 10 км 4/0
[Ac lent Ci sp]
+17.8 +6.7 48 +18 +18 1016.9 1010.5 +17.4
09 16.12 СВ 4 10 км 3/0
[Ci sp]
+23.0 +1.6 24 +22 +24 комфорт 1018.6 1012.2
12 16.12 СВ 4 10 км ясно +30.7 +2.2 16 +28 +37 жарко 1017.2 1010.9
15 16.12 В 4 10 км ясно +34.1 -1.0 11 +31 +37 жарко 1013.9 1007.6
18 16.12 С 3 10 км 1/0
[Ac lent]
+32.0 -0.8 12 +29 +29 жарко 1014.0 1007.6 +35.0
21 16.12 С 4 10 км 1/0
[Ac lent]
+24.0 +1.4 23 +23 +23 комфорт 1015.8 1009.4
00 17.12 Ю 2 10 км ясно +19.5 +2.2 32 +20 +20 1016.0 1009.6
03 17.12 Ю 2 10 км ясно +19.3 +1.2 30 +20 +20 1015.2 1008.8
06 17.12 ЮВ 3 10 км ясно +15.2 +1.2 39 +15 +15 1015.8 1009.4 +15.2
09 17.12 СВ 4 10 км 1/0
[Ac lent]
+23.1 -1.3 20 +22 +24 комфорт 1017.6 1011.2
12 17.12 СВ 4 10 км 3/0
[Ci sp]
+30.3 +0.8 15 +28 +36 жарко 1015.9 1009.5
15 17.12 В 3 10 км 5/0
[Ci sp]
+34.0 +1.4 13 +31 +38 жарко 1013.1 1006.8

 

Местоположение метеостанции Kayes (Мали): широта 14.43 долгота -11.43 высота над уровнем моря 47 м.

В архиве по умолчанию представлена погода в Kayes за последнюю неделю. Архивные данные за месяц целиком и за предыдущие месяцы, начиная с января 2011 года, Вы можете получить, выбрав интересующий диапазон дат из раскрывающегося списка и нажав кнопку "Ввод!".


*Определитесь, кто Вы:
робот инопланетянин человек

Внимание! Время в таблицах - всемирное. Для получения местного времени необходимо прибавить поправку, которая в Kayes равна 0 ч.

Смотрите также архив погоды в соседних городах и на ближайших метеорологических станциях:

Погода в Yelimane (Мали) (121 км)
Погода в Kenieba (Мали) (177 км)
Погода в Fatoto (Гамбия) (221 км)
Погода в Kedougou (Сенегал) (223 км)
Погода в Matam (Сенегал) (238 км)
Погода в Nioro Du Sahel (Мали) (241 км)
Погода в Kiffa (Мавритания) (245 км)
Погода в Tambacounda (Сенегал) (254 км)
Погода в Kita (Мали) (260 км)
Погода в Kaedi (Мавритания) (294 км)

Пояснения к столбцам:

Ветер - указаны скорость ветра в м/с - средняя за 10 мин, порывы в срок и между сроками (в фигурных скобках) и направление, откуда дует ветер: С - северный, СВ - северо-восточный, В - восточный, ЮВ - юго-восточный, Ю - южный, ЮЗ - юго-западный, З - западный, СЗ - северо-западный.
Видимость - горизонтальная дальность видимости в метрах или километрах. При видимости от 1 до 10 км при отсутствии осадков обычно наблюдается дымка, при ухудшении видимости до 1 км и менее - туман. В сухую погоду видимость может ухудшаться дымом, пылью или мглою.
Явления - указаны атмосферные явления, наблюдавшиеся в срок или в последний час перед сроком; фигурными скобками обозначены явления, наблюдавшиеся между сроками (за 1-3 часа до срока); квадратными скобками обозначены град или гололедные отложения с указанием их диаметра в мм.
Облачность - указаны через наклонную черту общая и нижняя облачность в баллах и высота нижней границы облаков в метрах; квадратными скобками обозначены формы облаков: Ci - перистые, Cs - перисто-слоистые, Cc - перисто-кучевые, Ac - высококучевые, As - высокослоистые, Sc - слоисто-кучевые, Ns - слоисто-дождевые, Cu - кучевые, Cb - кучево-дождевые. Подробнее классификацию облаков см. в Атласе облаков (PDF).
T - Температура воздуха - температура, измеренная на высоте 2 м над землей.
Td - Температура точки росы - температура, при понижении до которой содержащийся в воздухе водяной пар достигнет насыщения.
f - Относительная влажность воздуха - влажноcть воздуха, измеренная на высоте 2 м над землей.
Te - Эффективная температура - температура, которую ощущает одетый по сезону человек в тени. Характеристика душности погоды. При расчете учитывается влияние влажности воздуха и скорости ветра на теплоощущения человека.
Tes - Эффективная температура на солнце - температура, которую ощущает человек, с поправкой на солнечный нагрев. Характеристика знойности погоды. Зависит от высоты солнца над горизонтом, облачности и скорости ветра. Ночью, в пасмурную погоду, а также при ветре 12 м/с и более поправка равна нулю.
P - Атмосферное давление - приведенное к уровню моря атмосферное давление.
Po - Атмосферное давление - измеренное на уровне метеостанции атмосферное давление.
Tmin - Минимальная температура - минимум температуры воздуха на высоте 2 м над землей.
Tmax - Максимальная температура - максимум температуры воздуха на высоте 2 м над землей.
R - Количество осадков - Количество выпавших осадков за период времени, мм. При наведении курсора мыши на число - период времени, за который выпало указанное количество осадков.
R24 - Количество осадков - Количество выпавших осадков за 24 часа, мм.
S - Снежный покров - Высота снежного покрова, см. При наведении курсора мыши на число - состояние снежного покрова и степень покрытия местности в баллах.